This is the latest recevied weather packets stored in our database for station/object N2PUI. If no packets are shown the sender has not sent any weather packets the latest 1 day(s).
| Time | Temp. | Humidity | Pressure | Rain* | Wind** | Luminosity | Snow |
|---|---|---|---|---|---|---|---|
| 1778103633 | 7.78° C | 95% | 1010.3 hPa | 0 mm | - | 64 W/m² | - |
| 1778103028 | 7.78° C | 95% | 1010.2 hPa | 0 mm | - | 58 W/m² | - |
| 1778101813 | 7.78° C | 95% | 1009.7 hPa | 0 mm | - | 65 W/m² | - |
| 1778099691 | 8.33° C | 95% | 1009.3 hPa | 1.27 mm | - | 72 W/m² | - |
| 1778098781 | 8.33° C | 95% | 1008.8 hPa | 0 mm | - | 53 W/m² | - |
| 1778098175 | 8.33° C | 95% | 1008.5 hPa | 1.78 mm | - | 47 W/m² | - |
| 1778097568 | 8.33° C | 95% | 1008.5 hPa | 0 mm | - | 65 W/m² | - |
| 1778097265 | 8.33° C | 95% | 1008.4 hPa | 0 mm | - | 98 W/m² | - |
| 1778096356 | 8.89° C | 95% | 1008.7 hPa | 0 mm | - | 50 W/m² | - |
| 1778095749 | 8.89° C | 95% | 1008.5 hPa | 1.78 mm | - | 58 W/m² | - |
| 1778095143 | 8.33° C | 95% | 1008.3 hPa | 1.27 mm | - | 85 W/m² | - |
| 1778094233 | 8.89° C | 95% | 1008.1 hPa | 0 mm | - | 78 W/m² | - |
| 1778093627 | 8.89° C | 95% | 1007.9 hPa | 0 mm | - | 75 W/m² | - |
| 1778092718 | 8.33° C | 95% | 1007.9 hPa | 0 mm | - | 118 W/m² | - |
| 1778092413 | 8.33° C | 95% | 1007.8 hPa | 0 mm | - | 117 W/m² | - |
| 1778092111 | 8.33° C | 95% | 1007.9 hPa | 0 mm | - | 105 W/m² | - |
| 1778090900 | 8.33° C | 95% | 1007.7 hPa | 0 mm | - | 107 W/m² | - |
| 1778090596 | 8.33° C | 95% | 1007.8 hPa | 0 mm | - | 97 W/m² | - |
| 1778089687 | 8.89° C | 95% | 1007.5 hPa | 0 mm | - | 127 W/m² | - |
| 1778089384 | 8.89° C | 95% | 1007.3 hPa | 0 mm | - | 123 W/m² | - |
| 1778088778 | 8.89° C | 95% | 1007.2 hPa | 0 mm | - | 111 W/m² | - |
| 1778087566 | 8.89° C | 95% | 1007 hPa | 0 mm | - | 119 W/m² | - |
| 1778087264 | 9.44° C | 95% | 1007.2 hPa | 0 mm | - | 78 W/m² | - |
| 1778086960 | 8.89° C | 95% | 1007.4 hPa | 0 mm | - | 71 W/m² | - |
| 1778086355 | 9.44° C | 95% | 1007.1 hPa | 0 mm | - | 85 W/m² | - |
* Rain latest hour (hover to see other rain measurements)
** Current wind speed in m/s (hover to see current wind gust speed)